ピメンテル彗星

P/2020 G1 ( Pimentel ) 2027

English version
Home page
Updated on March 4, 2025

---------------------------------------------------------------------

・ プロフィール

・ 軌道要素

Epoch 2027 Feb. 4.0 TT = JDT 2461440.5                                          
T 2027 Jan. 18.79918 TT                                 Rudenko                 
q   0.5018526            (2000.0)            P               Q                  
n   0.14433983     Peri.  207.64769     +0.06005320     -0.95952111             
a   3.5992493      Node   240.10275     +0.96438819     +0.12690442             
e   0.8605674      Incl.   18.50569     +0.25758308     -0.25142494             
P   6.83                                                                        
From 468 observations 2020 Apr. 13-June 20, mean residual 0".9.                 

・ 星図

・ 光度変化

        m1 = 16.5 + 5 logΔ + 5.0 log r

---------------------------------------------------------------------

軌道要素はM.P.E.C. 2020-O07に掲載されたものです。
星図はステラナビゲータ Ver.11 (アストロアーツ) で作成したものです。
光度グラフはComet for Windowsで作成したものです。

---------------------------------------------------------------------

Copyright(C) Seiichi Yoshida (comet@aerith.net). All rights reserved.